Tampico, Mexico

12:31 AM CDT on July 27, 2017 (GMT -0500)
Gen Francisco Javier Mina

Weather History for MMTM - February, 2013

Change the Weather History Date:

Thursday, February 21, 2013

  Actual Average Record
Temperature  
Mean Temperature 80 °F -  
Max Temperature 91 °F 78 °F 91 °F (2013)
Min Temperature 69 °F 62 °F 62 °F (2004)
Cooling Degree Days 15    
Growing Degree Days 30 (Base 50)    
Moisture  
Dew Point 70 °F    
Average Humidity 79    
Maximum Humidity 97    
Minimum Humidity 53    
Precipitation  
Precipitation 0.00 in 0.02 in - ()
Sea Level Pressure  
Sea Level Pressure 29.70 in    
Wind  
Wind Speed 5 mph ()    
Max Wind Speed 23 mph    
Max Gust Speed -    
Visibility 5.2 miles    
Events      
Averages and records for this station are not official NWS values.
T = Trace of Precipitation, MM = Missing Value Source: Averaged Metar Reports

Daily Weather History Graph

Daily Weather History Graph

Search for Another Location

Airport or City:

Trip Planner

Search our weather history database for the weather conditions in past years. The results will help you decide how hot, cold, wet, or windy it might be!

Date:

Astronomy

Feb. 21, 2013 Rise Set
Actual Time 6:58 AM CST 6:31 PM CST
Civil Twilight 6:35 AM CST 6:54 PM CST
Nautical Twilight 6:09 AM CST 7:20 PM CST
Astronomical Twilight 5:43 AM CST 7:46 PM CST
Moon 3:05 PM CST (2/21) 3:45 AM CST (2/21)
Length of Visible Light 12h 18m
Length of Day
11h 33m
Waxing Gibbous, 84% of the Moon is Illuminated
Feb 21
Waxing Gibbous
Feb 25
Full
Mar 4
Last Quarter
Mar 11
New
Mar 19
First Quarter

Hourly Weather History & Observations

Time (CST) Temp. Heat Index Dew Point Humidity Pressure Visibility Wind Dir Wind Speed Gust Speed Precip Events Conditions
2:45 AM 71 °F - 70 °F 97% 29.76 in 6 mi SE 4.5 mph - -   Clear
5:40 AM 71 °F - 70 °F 97% 29.75 in 6 mi West 2.2 mph - -   Mostly Cloudy
5:43 AM 69.8 °F - 68.0 °F 94% 29.61 in 4.0 mi WNW 4.6 mph - N/A   Mostly Cloudy
6:43 AM 71.6 °F - 68.0 °F 88% 29.73 in 4.0 mi Calm Calm - N/A   Overcast
7:52 AM 69.8 °F - 68.0 °F 94% 29.76 in 4.0 mi Calm Calm - N/A   Overcast
8:40 AM 73 °F - 70 °F 87% 29.81 in 9 mi North 2.2 mph - -   Haze
8:40 AM 73.4 °F - 69.8 °F 88% 29.77 in 4.0 mi NW 2.3 mph - N/A   Overcast
9:45 AM 77.0 °F - 69.8 °F 78% 29.77 in 4.0 mi Calm Calm - N/A   Mostly Cloudy
10:40 AM 78.8 °F - 69.8 °F 74% 29.77 in 4.0 mi WSW 6.9 mph - N/A   Scattered Clouds
11:51 AM 82.4 °F 85.4 °F 68.0 °F 62% 29.75 in 4.0 mi Calm Calm - N/A   Clear
12:00 PM 84 °F - 72 °F 60% 29.78 in 11 mi SW 4.5 mph - -  
12:42 PM 86.0 °F 89.4 °F 68.0 °F 55% 29.70 in 4.0 mi East 4.6 mph - N/A   Clear
1:42 PM 84.2 °F 88.4 °F 69.8 °F 62% 29.66 in 4.0 mi East 8.1 mph - N/A   Clear
2:40 PM 90 °F - 75 °F 53% 29.66 in 11 mi East 8.9 mph - -   Haze
2:45 PM 84.2 °F 88.4 °F 69.8 °F 62% 29.63 in 4.0 mi East 6.9 mph - N/A   Clear
3:46 PM 82.4 °F 85.4 °F 68.0 °F 62% 29.60 in 4.0 mi ESE 8.1 mph - N/A   Clear
4:49 PM 80.6 °F 83.2 °F 68.0 °F 65% 29.59 in 5.0 mi SE 18.4 mph - N/A   Clear
5:45 PM 82 °F - 73 °F 68% 29.64 in 11 mi ESE 11.2 mph - -   Haze
5:45 PM 77.0 °F - 69.8 °F 78% 29.61 in 4.0 mi SE 20.7 mph - N/A   Clear
6:43 PM 75.2 °F - 69.8 °F 83% 29.62 in 3.0 mi SE 23.0 mph - N/A   Haze
7:43 PM 75.2 °F - 69.8 °F 83% 29.64 in 3.0 mi SE 11.5 mph - N/A   Haze
8:40 PM 74 °F - 73 °F 97% 29.72 in 6 mi ESE 2.2 mph - -  
8:47 PM 73.4 °F - 69.8 °F 88% 29.69 in 3.0 mi SE 9.2 mph - N/A   Haze
9:53 PM 73.4 °F - 69.8 °F 88% 29.71 in 3.0 mi SE 9.2 mph - N/A   Haze
10:43 PM 73.4 °F - 69.8 °F 88% 29.71 in 3.0 mi SSE 11.5 mph - N/A   Haze
11:40 PM 73 °F - 72 °F 96% 29.78 in 6 mi North 4.5 mph - -